sat.trackr.live / text

‹ back to catalog

STARLINK-5755

NORAD 55600 · 2023-020AH

PAYLOAD ACTIVE UNKNOWN

§ Identity

Operator
Country
US
Launch date
2023-02-12
Launch site
AFETR
Launch vehicle
Mass (kg)
RCS (m²)

Purposes: comms

External: N2YO · Heavens-Above · Gunter

§ Orbital elements

Epoch: 2026-09-20T11:53:04.682112Z

Period
94.27 min
Inclination
43.0033°
Eccentricity
0.0001079
Mean motion
15.27575006 rev/d
Perigee alt
482.3 km
Apogee alt
483.8 km
Semi-major
6,861.2 km
B*
1.5607e-5
RAAN
333.9568°
Arg perigee
271.9615°
Mean anomaly
88.1113°
Rev number
19,883

§ Raw data

STARLINK-57551 55600U 23020AH  26263.49519308  .00000167  00000+0  15607-4 0  99972 55600  43.0033 333.9568 0001079 271.9615  88.1113 15.27575006198835

JSON: /api/v1/satellites/55600 · /tle

For live sub-satellite position, see the globe view (requires WebGL).

§ Visibility from observer

Set your observer location to see the next 7 days of passes ≥ 10°. The values pass through the URL so the page stays shareable.

No JS? Fill the form by hand. The geolocation button needs JavaScript.